GW5152 Weather Reports


Display with metric or nautical units.
time (UTC)temp
F
wind
direction
speed
MPH
gust
MPH
rain 1hr
in
rain 24hr
in
rain mn
in
humidity
%
barometer
mb
20260504183428 61 0.0 0.0 0.00 0.00 0.00 72 1012.0
20260504182428 61 0.0 0.0 0.00 0.00 0.00 71 1012.1
20260504181426 61 0.0 0.0 0.00 0.00 0.00 71 1012.1
20260504180441 62 0.0 0.0 0.00 0.00 0.00 70 1012.1
20260504175426 62 0.0 0.0 0.00 0.00 0.00 70 1012.1
20260504174426 62 0.0 0.0 0.00 0.00 0.00 70 1012.2
20260504173426 62 0.0 0.0 0.00 0.00 0.00 69 1012.3
20260504172425 62 0.0 0.0 0.00 0.00 0.00 68 1012.4
20260504171424 62 0.0 0.0 0.00 0.00 0.00 68 1012.4
20260504170425 62 0.0 0.0 0.00 0.00 0.00 70 1012.3
20260504160422 63 0.0 0.0 0.00 0.00 0.00 74 1012.4
20260504150435 64 0.0 0.0 0.00 0.00 0.00 68 1012.4
20260504140418 64 0.0 0.0 0.00 0.00 0.00 70 1012.9
20260504130350 64 0.0 0.0 0.00 0.00 0.00 69 1013.4
20260504110404 65 0.0 0.0 0.00 0.00 0.00 62 1013.0
20260504100343 65 0.0 0.0 0.00 0.00 0.00 64 1012.9
20260504081339 61 0.0 0.0 0.00 0.00 0.00 69 1013.4
20260504080339 60 0.0 0.0 0.00 0.00 0.00 69 1013.4
20260504070338 59 0.0 0.0 0.00 0.00 0.00 68 1013.2
20260504050306 48 0.0 0.0 0.00 0.00 0.00 76 1013.2
20260504045322 48 0.0 0.0 0.00 0.00 0.00 76 1013.2
20260504044306 48 0.0 0.0 0.00 0.00 0.00 76 1013.2
20260504043306 48 0.0 0.0 0.00 0.00 0.00 75 1013.1
20260504042321 48 0.0 0.0 0.00 0.00 0.00 75 1013.1
20260504041305 48 0.0 0.0 0.00 0.00 0.00 75 1013.0
20260504040304 48 0.0 0.0 0.00 0.00 0.00 74 1013.1
20260504035305 48 0.0 0.0 0.00 0.00 0.00 74 1013.1
20260504034319 48 0.0 0.0 0.00 0.00 0.00 75 1013.1
20260504033303 48 0.0 0.0 0.00 0.00 0.00 74 1013.0
20260504032304 48 0.0 0.0 0.00 0.00 0.00 74 1013.1
20260504031318 48 0.0 0.0 0.00 0.00 0.00 74 1013.2
20260504030302 49 0.0 0.0 0.00 0.00 0.00 74 1013.2
20260504025304 49 0.0 0.0 0.00 0.00 0.00 74 1013.3
20260504024302 49 0.0 0.0 0.00 0.00 0.00 74 1013.2
20260504023316 49 0.0 0.0 0.00 0.00 0.00 74 1013.2
20260504022301 49 0.0 0.0 0.00 0.00 0.00 74 1013.2
20260504021301 50 0.0 0.0 0.00 0.00 0.00 74 1013.2
20260504020300 50 0.0 0.0 0.00 0.00 0.00 75 1013.2
20260504015300 50 0.0 0.0 0.00 0.00 0.00 74 1013.1
20260504014300 50 0.0 0.0 0.00 0.00 0.00 74 1013.2
20260504013259 50 0.0 0.0 0.00 0.00 0.00 74 1013.2
20260504012259 50 0.0 0.0 0.00 0.00 0.00 74 1013.2
20260504011259 51 0.0 0.0 0.00 0.00 0.00 74 1013.1
20260504010314 51 0.0 0.0 0.00 0.00 0.00 75 1013.1
20260504005258 51 0.0 0.0 0.00 0.00 0.00 74 1013.1
20260504004258 51 0.0 0.0 0.00 0.00 0.00 75 1013.0
20260504003257 50 0.0 0.0 0.00 0.00 0.00 74 1013.0
20260504002257 51 0.0 0.0 0.00 0.00 0.00 74 1013.0
20260504001257 51 0.0 0.0 0.00 0.00 0.00 74 1013.0
20260504000257 52 0.0 0.0 0.00 0.00 0.00 74 1013.0
20260503235256 52 0.0 0.0 0.00 0.00 0.00 74 1013.0
20260503234256 52 0.0 0.0 0.00 0.00 0.00 73 1013.0
20260503233256 52 0.0 0.0 0.00 0.00 0.00 73 1013.0
20260503232255 52 0.0 0.0 0.00 0.00 0.00 74 1013.0
20260503231255 52 0.0 0.0 0.00 0.00 0.00 74 1013.1
20260503230254 53 0.0 0.0 0.00 0.00 0.00 74 1013.0
20260503224227 53 0.0 0.0 0.00 0.00 0.00 74 1012.9
20260503223226 53 0.0 0.0 0.00 0.00 0.00 74 1012.9
20260503222226 54 0.0 0.0 0.00 0.00 0.00 74 1013.0
20260503221226 53 0.0 0.0 0.00 0.00 0.00 74 1012.9
20260503220226 54 0.0 0.0 0.00 0.00 0.00 72 1012.9
20260503215225 54 0.0 0.0 0.00 0.00 0.00 74 1013.0
20260503214240 54 0.0 0.0 0.00 0.00 0.00 72 1013.0
20260503213225 55 0.0 0.0 0.00 0.00 0.00 73 1013.0
20260503212224 55 0.0 0.0 0.00 0.00 0.00 73 1012.9
20260503211224 55 0.0 0.0 0.00 0.00 0.00 72 1012.9
20260503210224 55 0.0 0.0 0.00 0.00 0.00 72 1012.9
20260503205224 56 0.0 0.0 0.00 0.00 0.00 72 1012.8
20260503204223 56 0.0 0.0 0.00 0.00 0.00 72 1012.8
20260503203222 56 0.0 0.0 0.00 0.00 0.00 72 1012.9
20260503202223 57 0.0 0.0 0.00 0.00 0.00 72 1013.0
20260503201222 57 0.0 0.0 0.00 0.00 0.00 71 1012.9
20260503200222 57 0.0 0.0 0.00 0.00 0.00 72 1012.9
20260503195221 58 0.0 0.0 0.00 0.00 0.00 72 1012.8
20260503194221 58 0.0 0.0 0.00 0.00 0.00 71 1012.8
20260503193236 59 0.0 0.0 0.00 0.00 0.00 71 1012.8
20260503192220 60 0.0 0.0 0.00 0.00 0.00 70 1012.8
20260503191235 60 0.0 0.0 0.00 0.00 0.00 71 1012.8
20260503190220 60 0.0 0.0 0.00 0.00 0.00 72 1012.7
20260503185219 61 0.0 0.0 0.00 0.00 0.00 71 1012.7